Weather History for Memphis, TN

Change the Weather History Date:

Sunday, September 29, 2013

  Actual Average Record
Temperature  
Mean Temperature 69 °F 70 °F  
Max Temperature 72 °F 80 °F 98 °F (1953)
Min Temperature 66 °F 60 °F 36 °F (1942)
Degree Days  
Heating Degree Days 0 1  
Month to date heating degree days 0 9  
Since 1 July heating degree days 0 9  
Cooling Degree Days 4 6  
Month to date cooling degree days 394 309  
Year to date cooling degree days 2120 2144  
Growing Degree Days 18 (Base 50)    
Moisture  
Dew Point 63 °F    
Average Humidity 77    
Maximum Humidity 93    
Minimum Humidity 61    
Precipitation  
Precipitation 0.08 in 0.12 in 2.69 in (1972)
Month to date precipitation 2.64 2.97  
Year to date precipitation 48.59 38.35  
Snow  
Snow 0.00 in 0.00 in 0.00 in (2002)
Month to date snowfall 0.0 0.0  
Since 1 July snowfall 0.0 0.0  
Since 1 September snowfall 0.0 0.0  
Snow Depth 0.00 in    
Sea Level Pressure  
Sea Level Pressure 29.99 in    
Wind  
Wind Speed 6 mph (SE)    
Max Wind Speed 13 mph    
Max Gust Speed 17 mph    
Visibility 6 miles    
Events Rain    
T = Trace of Precipitation, MM = Missing Value Source: NWS Daily Summary

Daily Weather History Graph

Daily Weather History Graph

Search for Another Location

Airport:

Trip Planner

Search our weather history database for the weather conditions in past years. The results will help you decide how hot, cold, wet, or windy it might be!

Date:

Astronomy

Sep. 29, 2013 Rise Set
Actual Time 6:53 AM CDT 6:46 PM CDT
Civil Twilight 6:28 AM CDT 7:11 PM CDT
Nautical Twilight 5:58 AM CDT 7:40 PM CDT
Astronomical Twilight 5:29 AM CDT 8:10 PM CDT
Moon 1:45 AM CDT (9/29) 3:33 PM CDT (9/29)
Length of Visible Light 12h 43m
Length of Day
11h 52m
Waning Crescent, 27% of the Moon is Illuminated
Sep 29
Waning Crescent
Oct 4
New
Oct 11
First Quarter
Oct 18
Full
Oct 26
Last Quarter

Hourly Weather History & Observations

Time (CDT) Temp. Dew Point Humidity Pressure Visibility Wind Dir Wind Speed Gust Speed Precip Events Conditions
12:54 AM 72.0 °F 57.9 °F 61% 30.01 in 10.0 mi SSE 11.5 mph - N/A   Overcast
1:54 AM 71.1 °F 57.9 °F 63% 30.01 in 10.0 mi SSE 9.2 mph - N/A   Overcast
2:54 AM 71.1 °F 57.9 °F 63% 30.01 in 10.0 mi South 9.2 mph - N/A   Overcast
3:54 AM 71.1 °F 57.9 °F 63% 30.01 in 10.0 mi SSW 5.8 mph - 0.00 in Rain Light Rain
4:54 AM 70.0 °F 59.0 °F 68% 30.01 in 10.0 mi South 5.8 mph - 0.00 in Rain Light Rain
5:54 AM 68.0 °F 61.0 °F 78% 30.04 in 10.0 mi South 5.8 mph - 0.01 in Rain Light Rain
6:54 AM 68.0 °F 61.0 °F 78% 30.04 in 10.0 mi SSE 8.1 mph - 0.01 in   Overcast
7:54 AM 66.0 °F 61.0 °F 84% 30.04 in 10.0 mi Calm Calm - 0.00 in Rain Light Rain
8:54 AM 66.9 °F 61.0 °F 81% 30.03 in 10.0 mi SE 5.8 mph - 0.00 in Rain Light Rain
9:43 AM 68.0 °F 60.8 °F 78% 30.04 in 10.0 mi SSE 5.8 mph - 0.00 in Rain Light Rain
9:54 AM 68.0 °F 62.1 °F 81% 30.03 in 10.0 mi South 5.8 mph - 0.00 in Rain Light Rain
10:54 AM 69.1 °F 60.1 °F 73% 30.02 in 10.0 mi SSE 9.2 mph - 0.00 in   Overcast
11:31 AM 69.8 °F 60.8 °F 73% 30.03 in 10.0 mi SSE 6.9 mph - N/A   Overcast
11:54 AM 70.0 °F 61.0 °F 73% 30.02 in 10.0 mi SE 6.9 mph - N/A   Overcast
12:18 PM 71.6 °F 60.8 °F 69% 30.03 in 10.0 mi SSE 6.9 mph - N/A   Overcast
12:54 PM 69.1 °F 62.1 °F 78% 30.01 in 9.0 mi SSE 6.9 mph - 0.00 in Rain Light Rain
1:41 PM 68.0 °F 64.4 °F 88% 30.00 in 6.0 mi SSE 5.8 mph - 0.00 in Rain Light Rain
1:54 PM 66.9 °F 64.0 °F 90% 29.99 in 3.0 mi SE 5.8 mph - 0.01 in Rain Light Rain
2:54 PM 68.0 °F 64.9 °F 90% 29.96 in 2.0 mi ESE 5.8 mph - 0.01 in   Overcast
3:04 PM 68.0 °F 64.4 °F 88% 29.97 in 2.0 mi ESE 6.9 mph - N/A   Overcast
3:19 PM 68.0 °F 64.4 °F 88% 29.97 in 2.0 mi SE 4.6 mph - N/A   Overcast
3:30 PM 68.0 °F 66.2 °F 94% 29.97 in 2.0 mi Variable 4.6 mph - N/A   Overcast
3:41 PM 68.0 °F 66.2 °F 94% 29.96 in 2.0 mi ESE 4.6 mph - N/A   Overcast
3:54 PM 69.1 °F 66.0 °F 90% 29.95 in 2.0 mi SE 6.9 mph - 0.01 in   Overcast
3:56 PM 69.8 °F 66.2 °F 88% 29.96 in 2.0 mi SE 5.8 mph - 0.00 in Rain Light Rain
4:50 PM 69.8 °F 66.2 °F 88% 29.96 in 2.0 mi SE 4.6 mph - 0.00 in   Light Drizzle
4:54 PM 69.1 °F 66.0 °F 90% 29.95 in 2.0 mi ESE 4.6 mph - 0.00 in   Light Drizzle
5:13 PM 69.8 °F 66.2 °F 88% 29.96 in 3.0 mi SSE 5.8 mph - 0.01 in   Light Drizzle
5:54 PM 69.1 °F 66.0 °F 90% 29.96 in 3.0 mi SSE 5.8 mph - 0.01 in   Overcast
6:44 PM 68.0 °F 66.2 °F 94% 29.97 in 2.0 mi SE 5.8 mph - 0.00 in   Light Drizzle
6:54 PM 68.0 °F 64.9 °F 90% 29.96 in 3.0 mi SE 5.8 mph - 0.00 in   Light Drizzle
7:54 PM 68.0 °F 64.9 °F 90% 29.97 in 3.0 mi SSE 6.9 mph - 0.00 in   Overcast
8:43 PM 66.2 °F 64.4 °F 94% 29.98 in 2.0 mi SE 5.8 mph - 0.00 in   Light Drizzle
8:54 PM 66.9 °F 64.9 °F 93% 29.98 in 2.0 mi SE 3.5 mph - 0.00 in   Light Drizzle
9:54 PM 66.9 °F 64.9 °F 93% 29.97 in 2.0 mi SE 4.6 mph - 0.00 in   Overcast
10:54 PM 66.0 °F 64.0 °F 93% 29.96 in 2.0 mi SE 4.6 mph - 0.02 in Rain Light Rain
11:14 PM 66.2 °F 64.4 °F 94% 29.97 in 2.0 mi ESE 4.6 mph - 0.00 in   Overcast
11:54 PM 66.9 °F 64.0 °F 90% 29.95 in 2.0 mi SE 5.8 mph - 0.00 in   Overcast